Flag for Nicaragua Weather past 2 weeks in Masaya, Nicaragua

Now
81 °F

Passing clouds.


Feels Like: 83 °F
Forecast: 72 / 91 °F
Wind: 14 mph from East

Location: Managua A. C. Sandino

Current Time: Mar 30, 2015 at 11:49:21 PM

Latest Report: Mar 30, 2015 at 11:00 PM


Visibility: N/A

Pressure: 29.92 "Hg

Humidity: 66%

Dew point: 68 °F

Location of MasayaLocation

Historic Weather in Masaya — Graph

°F

Masaya temperature yesterday

Maximum temperature yesterday: 97 °F (at 2:00 PM)
Minimum temperature yesterday: 75 °F (at 5:00 AM)
Average temperature yesterday: 87 °F

Past Weeks' High & Low Weather Summary

 TemperatureHumidityPressure
High97 °F (Mar 29, 2:00 PM)94% (Mar 19, 6:00 AM)30.01 "Hg (Mar 19, 6:00 AM)
Low68 °F (Mar 19, 6:00 AM)30% (Mar 29, 2:00 PM)29.77 "Hg (Mar 26, 4:00 PM)
Average84 °F57%29.90 "Hg
* Reported Mar 15 10:00 PM — Mar 30 10:00 PM, Masaya, Weather by CustomWeather, © 2015

Note: Actual official high and low records may vary slightly from our data, if they occured in-between our weather recording intervals... More about our weather records

Advertising

Masaya weather history for previous 24 hours

 ConditionsComfort  
Time TempWeatherWind HumidityBarometerVisibility
10:00 PM
Mon, Mar 30
82 °FPassing clouds.12 mph62%29.92 "HgN/A
9:00 PM82 °FPassing clouds.9 mph70%29.92 "HgN/A
8:00 PM82 °FPassing clouds.9 mph70%29.89 "HgN/A
7:00 PM84 °FPassing clouds.9 mph66%29.86 "HgN/A
6:00 PM88 °FPassing clouds.12 mph55%29.83 "HgN/A
5:00 PM91 °FScattered clouds.14 mph41%29.83 "HgN/A
4:00 PM93 °FScattered clouds.16 mph36%29.83 "HgN/A
3:00 PM95 °FScattered clouds.14 mph32%29.83 "HgN/A
2:00 PM95 °FPassing clouds.16 mph32%29.86 "HgN/A
1:00 PM93 °FPassing clouds.12 mph34%29.89 "HgN/A
12:00 PM93 °FScattered clouds.5 mph34%29.92 "HgN/A
11:00 AM91 °FScattered clouds.7 mph41%29.98 "HgN/A
10:00 AM88 °FScattered clouds.14 mph43%29.98 "HgN/A
9:00 AM84 °FScattered clouds.12 mph55%30.01 "HgN/A
8:00 AM81 °FScattered clouds.5 mph66%30.01 "HgN/A
7:00 AM77 °FScattered clouds.7 mph74%29.95 "HgN/A
6:00 AM73 °FScattered clouds.No wind83%29.98 "HgN/A
5:00 AM75 °FPassing clouds.5 mph83%29.95 "HgN/A
4:00 AM77 °FPassing clouds.7 mph74%29.95 "HgN/A
3:00 AM77 °FPassing clouds.7 mph74%29.95 "HgN/A
12:00 AM81 °FPassing clouds.12 mph66%29.98 "HgN/A
11:00 PM
Sun, Mar 29
82 °FPassing clouds.14 mph62%29.98 "HgN/A
Weather by CustomWeather, © 2015

See weather overviewHow to use our weather pages